Regional Weather Roundup
Issued by NWS

Home | Current Version | Previous Version | Graphics & Text | Print | Product List | Glossary On
Versions: 1 2 3 4 5 6 7 8 9 10 11 12 13 14 15 16 17 18 19 20 21 22 23 24 25 26 27 28 29 30 31 32 33 34 35 36 37 38 39 40 41 42 43 44 45 46 47 48 49 50
000
ASUS45 KCYS 232110
RWRWY

WYOMING REGIONAL WEATHER ROUNDUP
NATIONAL WEATHER SERVICE CHEYENNE WY
200 PM MST THU NOV 23 2017

NOTE:  "FAIR" INDICATES FEW OR NO CLOUDS BELOW 12,000 FEET
WITH NO SIGNIFICANT WEATHER AND/OR OBSTRUCTIONS TO VISIBILITY.

WYZ001-232200-
YELLOWSTONE NATIONAL PARK

CITY           SKY/WX    TMP DP  RH WIND       PRES   REMARKS
LK YELLOWSTONE   N/A     45  35  68 W7G23     30.13F
W YELLOWSTONE  NOT AVBL

$$
WYZ002>013-054>058-071-098>099-232200-
NORTHERN WYOMING

CITY           SKY/WX    TMP DP  RH WIND       PRES   REMARKS
JACKSON        CLOUDY    55  36  48 SW13G22   30.13F
CODY           PTSUNNY   67  33  28 VRB7G23   29.91R
GREYBULL       FAIR      49  38  65 CALM      29.88F
WORLAND        FAIR      54  41  61 N8        29.89F
SHERIDAN       FAIR      69  35  28 W13       29.78F
BUFFALO        FAIR      62  31  31 NE6       29.85F
GILLETTE       FAIR      63  33  32 SW17      29.82F
HULETT         FAIR      61  36  39 SW16G22   29.82F
NEWCASTLE      FAIR      59  34  38 SE9G16    29.89F

$$
WYZ014>020-022>026-101>103-232200-
CENTRAL WYOMING

CITY           SKY/WX    TMP DP  RH WIND       PRES   REMARKS
BIG PINEY      FAIR      54  37  52 NW5       30.17F
PINEDALE       MOCLDY    50  36  57 CALM      30.19F
DUBOIS         FAIR      54  32  43 MISG      30.09S
LANDER         FAIR      56  36  47 SW3       29.98F
RIVERTON       FAIR      55  35  47 S3        29.99F
CASPER         FAIR      59  35  40 SW23G33   29.99F
DOUGLAS        FAIR      64  37  36 W26G39    29.92F

$$
WYZ021-027>030-104>119-232200-
SOUTHERN WYOMING

CITY           SKY/WX    TMP DP  RH WIND       PRES   REMARKS
EVANSTON       FAIR      59  35  40 W15G26    30.24F
KEMMERER       FAIR      55  36  47 SW23      30.21F
FORT BRIDGER   FAIR      60  34  37 W20G30    30.26F
ROCK SPRINGS   FAIR      56  33  42 W26G37    30.18F
DIXON          FAIR      57  34  42 SW17G24   30.24F
RAWLINS        FAIR      54  37  52 SW21      30.15F
SARATOGA       FAIR      55  30  38 SW16G23   30.19F
LARAMIE        FAIR      56  29  35 W30G40    30.10F
CHEYENNE       FAIR      61  31  32 W17G25    30.06F
TORRINGTON     FAIR      68  38  33 W15       29.92F
PINE BLUFFS    FAIR      68  28  22 W18       30.02F

$$



USA.gov is the U.S. government's official web portal to all federal, state and local government web resources and services.